Find AISat-1

NORAD ID: 40054 Int'l Des: 2014-034 Owner: DLR2 Country: D operational
LEOCIRCULARRETROGRADE

Live Position

Loading 3D Globe...

About AISat-1

Description loading...

Upcoming Passes

Passes for default location (London). Set your location on the main map for personalized predictions.

Altitude History

Loading altitude history...

Two-Line Element Set

1 40054U 14034B 26107.19279741 .00005593 00000-0 37137-3 0 9997
2 40054 98.2432 15.2077 0011280 71.3863 288.8587 15.07628343638018
Epoch: Apr 17, 2026 • Age: 9 hours

Current Status

Altitude 548.0 km
Velocity 7.60 km/s
Sub-Earth Point 55.26°N, 164.82°E
Launch Date Jun 30, 2014
Age 11.7 years
Type other

Technical Details

Classification Payload
Mass 10.00 kg
Dry Mass 10.00 kg
Total Mass 10.00 kg
Length 0.10 m
Diameter 0.20 m
Span 4.00 m
Shape Box+helix
Manufacturer DLRB
Bus Type CLAVIS
Phase Status In Orbit
Owner/State DLR2/D

Most Searched